PEGASUS DEB

Satellite information

Favourite Embed

Satellite Type and Status

DEBRISIN ORBIT

Key statistics

Satellite PEGASUS DEB at a glance.

Uptime

11532

Days in orbit

Revolutions

≈ 14.9

Per day

Orbit

LEO

Low Earth Orbit

Inclination

82.0

Latest

Satellite identification and parameters

Extended collection of information and parameters for PEGASUS DEB.

Object identification

Identified? True

Debris? True

Object name: PEGASUS DEB

International designator: 1994-029WD

Object number (NORAD): 24529

Object ID (CCSDS): 24529

Country: UNITED STATES OF AMERICA (US)

Current information (Y/N): Y

RCS size: SMALL

Orbital parameters

Period: 96.729 minutes

Inclination: 81.9745 deg

SMA: 6980.138 km

Apoapsis: 677.17 km

Periapsis: 526.837 km

RAAN: 310.3353 deg

Eccentricy: 0.0107686

Argument of periapsis: 180.3512 deg

Mean anomaly: 234.648 deg

Mean motion: 14.88698419 rev/day

Mean motion (dot): 0.00003118 rev/day2

B* drag term: 0.00029726 1/REarth

Two-line elements (TLE)

Creation date: Dec. 12, 2025, 7:26 a.m.

Reference frame: TEME

Reference center: EARTH

Epoch: Dec. 11, 2025, 10:07 p.m. UTC

TLE line 0: 0 PEGASUS DEB

TLE line 1: 1 24529U 94029WD 25345.92159328 .00003118 00000-0 29726-3 0 9996

TLE line 2: 2 24529 81.9745 310.3353 0107686 180.3512 234.6480 14.88698419224412

Live tracking on map

Real-time ground track for satellite PEGASUS DEB.

In-orbit conjunctions

A list of the most updated potential collisions computed for object PEGASUS DEB.

Target Orbit TCA Probability of collision Miss distance Type
BILSAT 1 SSO 2025-11-14 23:21:31 0.0001445431 132.0 (m) PAYLOAD
CZ-4C R/B SSO 2025-07-24 06:44:33 0.0004029121 49.0 (m) ROCKET BODY
ORBVIEW 1 (MICROLAB) LEO 2025-04-17 09:41:02 0.0004363379 119.0 (m) PAYLOAD
CZ-4 DEB SSO 2025-02-08 22:58:21 0.001504112 31.0 (m) DEBRIS

Associated space launch

PEGASUS DEB was lifted into orbit during the mission ‘Pegasus HAPS | Space Test Experiments Platform 2 (STEP-2)’, on board a Pegasus HAPS space rocket.

The launch took place on May 19, 1994, 5:03 p.m. from Edwards Air Force Base.

For more information about the launch, click the button.

Launch to space Pegasus HAPS | Space Test Experiments Platform 2 (STEP-2)
Pegasus HAPS | Space Test Experiments Platform 2 (STEP-2)

Agency: N/A

Status: Launch Successful

Launch date: May 19, 1994, 5:03 p.m. UTC

Rocket: Pegasus HAPS

Launch pad: Edwards Air Force Base

Location: Air launch to orbit

...

Latest news about this satellite

There are no fresh news available about this satellite. Check back as we update our databases every day.


Newsletter sign-up

Weekly statistics, charts and insights to help you stay on top of the space industry.